Weather History for Szolnok, Hungary

Change the Weather History Date:

Monday, October 7, 2013

  Actual Average (LHBP) Record (LHBP)
Temperature  
Mean Temperature 50 °F -  
Max Temperature 66 °F 64 °F 78 °F (1997)
Min Temperature 35 °F 45 °F 35 °F (2006)
Degree Days  
Heating Degree Days 14    
Moisture  
Dew Point 33 °F    
Average Humidity 55    
Maximum Humidity 93    
Minimum Humidity 24    
Precipitation  
Precipitation 0.00 in - - ()
Sea Level Pressure  
Sea Level Pressure 30.33 in    
Wind  
Wind Speed 2 mph ()    
Max Wind Speed 7 mph    
Max Gust Speed -    
Visibility 3.1 miles    
Events      
Averages and records for this station are not official NWS values.
T = Trace of Precipitation, MM = Missing Value Source: Averaged Metar Reports

Daily Weather History Graph

Daily Weather History Graph

Search for Another Location

Airport:

Trip Planner

Search our weather history database for the weather conditions in past years. The results will help you decide how hot, cold, wet, or windy it might be!

Date:

Astronomy

Oct. 07, 2013 Rise Set
Actual Time 6:46 AM CEST 6:06 PM CEST
Civil Twilight 6:15 AM CEST 6:37 PM CEST
Nautical Twilight 5:40 AM CEST 7:12 PM CEST
Astronomical Twilight 5:04 AM CEST 7:48 PM CEST
Moon 9:27 AM CEST (10/7) 7:24 PM CEST (10/7)
Length of Visible Light 12h 21m
Length of Day
11h 20m
Waxing Crescent, 7% of the Moon is Illuminated
Oct 7
Waxing Crescent
Oct 12
First Quarter
Oct 19
Full
Oct 27
Last Quarter
Nov 3
New

Hourly Weather History & Observations

Time (CEST) Temp. Windchill Dew Point Humidity Pressure Visibility Wind Dir Wind Speed Gust Speed Precip Events Conditions
12:15 AM 42.8 °F - 33.8 °F 70% 30.30 in - Calm Calm - N/A   Clear
12:45 AM 41.0 °F - 33.8 °F 76% 30.30 in - Calm Calm - N/A   Clear
1:15 AM 41.0 °F - 33.8 °F 76% 30.30 in - Calm Calm - N/A   Clear
1:45 AM 39.2 °F - 33.8 °F 81% 30.30 in - Calm Calm - N/A   Clear
2:15 AM 39.2 °F - 33.8 °F 81% 30.30 in - North 2.2 mph - N/A   Clear
2:45 AM 37.4 °F - 35.6 °F 93% 30.30 in - NNW 2.2 mph - N/A   Clear
3:15 AM 39.2 °F - 35.6 °F 87% 30.30 in - Calm Calm - N/A   Clear
3:45 AM - - - N/A% - 3.1 mi Variable 4.5 mph - N/A   Clear
4:15 AM 37.4 °F - 35.6 °F 93% 30.33 in - Calm Calm - N/A   Clear
4:45 AM 37.4 °F - 35.6 °F 93% 30.33 in - North 2.2 mph - N/A   Clear
5:15 AM 37.4 °F - 33.8 °F 87% 30.33 in - Calm Calm - N/A   Clear
5:45 AM 37.4 °F - 33.8 °F 87% 30.33 in - NNE 2.2 mph - N/A   Clear
6:15 AM 35.6 °F - 32.0 °F 87% 30.33 in - NE 2.2 mph - N/A   Clear
6:45 AM - - - N/A% - - ENE 6.7 mph - N/A   Clear
7:15 AM 37.4 °F - 33.8 °F 87% 30.33 in - NNE 2.2 mph - N/A   Clear
7:45 AM 39.2 °F 36.0 °F 33.8 °F 81% 30.36 in - NE 4.5 mph - N/A   Clear
8:15 AM 42.8 °F 40.2 °F 33.8 °F 70% 30.36 in - ENE 4.5 mph - N/A   Clear
8:45 AM 44.6 °F 42.3 °F 33.8 °F 66% 30.36 in - ENE 4.5 mph - N/A   Clear
9:15 AM 48.2 °F - 33.8 °F 58% 30.36 in - NE 2.2 mph - N/A   Clear
9:45 AM 51.8 °F - 33.8 °F 50% 30.36 in - NE 4.5 mph - N/A   Clear
10:15 AM 53.6 °F - 33.8 °F 47% 30.36 in - NE 6.7 mph - N/A   Clear
10:45 AM 57.2 °F - 32.0 °F 38% 30.36 in - ENE 4.5 mph - N/A   Clear
11:15 AM 59.0 °F - 32.0 °F 36% 30.36 in - ENE 2.2 mph - N/A   Clear
11:45 AM 60.8 °F - 30.2 °F 31% 30.36 in - ENE 2.2 mph - N/A   Clear
12:15 PM 62.6 °F - 30.2 °F 30% 30.36 in - Variable 2.2 mph - N/A   Clear
12:45 PM 62.6 °F - 30.2 °F 30% 30.36 in - Variable 4.5 mph - N/A   Clear
1:15 PM 64.4 °F - 28.4 °F 26% 30.33 in - East 2.2 mph - N/A   Clear
1:45 PM 64.4 °F - 28.4 °F 26% 30.33 in - Variable 4.5 mph - N/A   Clear
2:15 PM 66.2 °F - 28.4 °F 24% 30.33 in - Variable 4.5 mph - N/A   Clear
2:45 PM 66.2 °F - 28.4 °F 24% 30.33 in - NNE 4.5 mph - N/A   Clear
3:15 PM 66.2 °F - 28.4 °F 24% 30.33 in - ENE 4.5 mph - N/A   Clear
3:45 PM 66.2 °F - 28.4 °F 24% 30.30 in - ENE 4.5 mph - N/A   Clear
4:15 PM 66.2 °F - 30.2 °F 26% 30.30 in - NE 4.5 mph - N/A   Clear
4:45 PM 66.2 °F - 28.4 °F 24% 30.30 in - NE 4.5 mph - N/A   Clear
5:15 PM 62.6 °F - 30.2 °F 30% 30.30 in - NE 2.2 mph - N/A   Clear
5:45 PM 59.0 °F - 33.8 °F 39% 30.30 in - NNE 2.2 mph - N/A   Clear
6:15 PM 60.8 °F - 32.0 °F 34% 30.30 in - NE 4.5 mph - N/A   Clear
6:45 PM 55.4 °F - 33.8 °F 44% 30.33 in - NNE 2.2 mph - N/A   Clear
7:15 PM 53.6 °F - 33.8 °F 47% 30.33 in - North 2.2 mph - N/A   Clear
7:45 PM 53.6 °F - 33.8 °F 47% 30.33 in - NNE 4.5 mph - N/A   Clear
8:15 PM 50.0 °F - 33.8 °F 54% 30.33 in - Calm Calm - N/A   Clear
8:45 PM 50.0 °F - 33.8 °F 54% 30.33 in - Calm Calm - N/A   Clear
9:15 PM 48.2 °F - 33.8 °F 58% 30.33 in - Calm Calm - N/A   Clear
9:45 PM - - - N/A% - 3.1 mi NE 4.5 mph - N/A   Clear
10:15 PM 46.4 °F - 33.8 °F 62% 30.33 in - NNE 2.2 mph - N/A   Clear
10:45 PM 46.4 °F - 35.6 °F 66% 30.33 in - NE 2.2 mph - N/A   Clear
11:15 PM 48.2 °F - 33.8 °F 58% 30.33 in - NE 2.2 mph - N/A   Clear
11:45 PM 48.2 °F - 32.0 °F 54% 30.33 in - NNE 4.5 mph - N/A   Clear